Overview Statistics Trail Chart Weather Telemetry Raw packets
 

This is the latest recevied weather packets stored in our database for station/object NO9B. If no packets are shown the sender has not sent any weather packets the latest 10 day(s).

<< 97 98 99 100 101 102 103 >>
Time Temp. Humidity Pressure Rain* Wind** Luminosity Snow
1787931550 25° C 68% 1022.7 hPa 0 mm - 41 W/m² -
1787931245 25° C 67% 1022.7 hPa 0 mm - 41 W/m² -
1787930944 25° C 65% 1022.5 hPa 0 mm - 40 W/m² -
1787930643 25° C 69% 1022.7 hPa 0 mm - 39 W/m² -
1787930338 24.44° C 68% 1022.6 hPa 0 mm - 38 W/m² -
1787930033 24.44° C 67% 1022.6 hPa 0 mm - 37 W/m² -
1787929731 23.89° C 66% 1022.5 hPa 0 mm - 36 W/m² -
1787929427 23.89° C 67% 1022.4 hPa 0 mm - 36 W/m² -
1787929124 23.89° C 71% 1022.5 hPa 0 mm - 35 W/m² -
1787928820 23.89° C 71% 1022.4 hPa 0 mm - 34 W/m² -
1787928519 23.89° C 73% 1022.6 hPa 0 mm - 34 W/m² -
1787928227 23.33° C 70% 1022.6 hPa 0 mm - 33 W/m² -
1787927917 23.33° C 75% 1022.6 hPa 0 mm - 32 W/m² -
1787927612 23.33° C 73% 1022.6 hPa 0 mm - 31 W/m² -
1787927307 23.33° C 75% 1022.5 hPa 0 mm - 31 W/m² -
1787927003 22.78° C 77% 1022.4 hPa 0 mm - 30 W/m² -
1787926703 22.78° C 77% 1022.3 hPa 0 mm - 29 W/m² -
1787926401 22.22° C 77% 1022.4 hPa 0 mm - 28 W/m² -
1787926096 22.22° C 78% 1022.4 hPa 0 mm - 27 W/m² -
1787925795 22.22° C 80% 1022.5 hPa 0 mm - 26 W/m² -
1787925495 22.22° C 80% 1022.1 hPa 0 mm - 25 W/m² -
1787925189 21.67° C 82% 1022.4 hPa 0 mm - 24 W/m² -
1787924888 21.67° C 82% 1022.4 hPa 0 mm - 24 W/m² -
1787924583 21.11° C 84% 1022.5 hPa 0 mm - 23 W/m² -
1787924279 21.11° C 87% 1022.5 hPa 0 mm - 22 W/m² -

* Rain latest hour (hover to see other rain measurements)
** Current wind speed in m/s (hover to see current wind gust speed)